• In Uzbekistan
  • List of Countries
  • For 7 days
  • Water Temperature
  • Satellite Maps
  • Weather Map
  • Weather Widgets
  • user-avatar
    Login

    Hourly Weather Stepanakert

    Today, 27 April, Thursday

    Time Temperature Precipitation Wind Pressure Humidity
    00:00 +3°C° 0 mm 1 mps 701 mmHg 85%
    01:00 +3°C° 0 mm 1 mps 701 mmHg 85%
    02:00 +3°C° 0 mm 1 mps 701 mmHg 84%
    03:00 +3°C° 0 mm 1 mps 700 mmHg 86%
    04:00 +4°C° 0 mm 1 mps 701 mmHg 81%
    05:00 +4°C° 0 mm 1 mps 701 mmHg 76%
    06:00 +5°C° 0 mm 1 mps 701 mmHg 72%
    07:00 +7°C° 0 mm 1 mps 701 mmHg 65%
    08:00 +8°C° 0 mm 2 mps 701 mmHg 57%
    09:00 +10°C° 0 mm 2 mps 702 mmHg 49%
    10:00 +12°C° 0 mm 2 mps 701 mmHg 48%
    11:00 +12°C° 0 mm 3 mps 701 mmHg 47%
    12:00 +13°C° 0 mm 3 mps 701 mmHg 47%
    13:00 +13°C° 0 mm 3 mps 701 mmHg 49%
    14:00 +13°C° 0 mm 3 mps 700 mmHg 52%
    15:00 +13°C° 0 mm 3 mps 700 mmHg 54%
    16:00 +12°C° 0 mm 3 mps 700 mmHg 59%
    17:00 +12°C° 0 mm 2 mps 700 mmHg 64%
    18:00 +10°C° 0 mm 2 mps 699 mmHg 69%
    19:00 +8°C° 0 mm 2 mps 700 mmHg 76%
    20:00 +7°C° 0 mm 1 mps 700 mmHg 83%
    21:00 +5°C° 0 mm 1 mps 700 mmHg 90%
    22:00 +5°C° 0 mm 1 mps 700 mmHg 90%
    23:00 +5°C° 0 mm 1 mps 700 mmHg 91%

    Tomorrow, 28 April, Friday

    Time Temperature Precipitation Wind Pressure Humidity
    00:00 +5°C° 0 mm 1 mps 700 mmHg 91%
    01:00 +5°C° 0 mm 1 mps 699 mmHg 89%
    02:00 +5°C° 0 mm 1 mps 699 mmHg 88%
    03:00 +5°C° 0 mm 1 mps 699 mmHg 87%
    04:00 +6°C° 0 mm 1 mps 699 mmHg 84%
    05:00 +6°C° 0 mm 1 mps 699 mmHg 82%
    06:00 +7°C° 0 mm 1 mps 699 mmHg 79%
    07:00 +9°C° 0 mm 1 mps 699 mmHg 71%
    08:00 +11°C° 0 mm 1 mps 699 mmHg 64%
    09:00 +13°C° 0 mm 2 mps 699 mmHg 57%
    10:00 +14°C° 0 mm 2 mps 699 mmHg 54%
    11:00 +15°C° 0 mm 2 mps 699 mmHg 52%
    12:00 +17°C° 0 mm 2 mps 698 mmHg 49%
    13:00 +17°C° 0 mm 2 mps 698 mmHg 50%
    14:00 +17°C° 0 mm 2 mps 697 mmHg 50%
    15:00 +17°C° 0 mm 2 mps 697 mmHg 51%
    16:00 +16°C° 0 mm 2 mps 697 mmHg 57%
    17:00 +15°C° 0 mm 1 mps 696 mmHg 62%
    18:00 +14°C° 0 mm 1 mps 696 mmHg 67%
    19:00 +12°C° 0 mm 1 mps 696 mmHg 74%
    20:00 +10°C° 0 mm 1 mps 696 mmHg 80%
    21:00 +8°C° 0 mm 1 mps 696 mmHg 86%
    22:00 +8°C° 0 mm 1 mps 696 mmHg 85%
    23:00 +8°C° 0 mm 1 mps 695 mmHg 85%

    Day after tomorrow, 29 April, Saturday

    Time Temperature Precipitation Wind Pressure Humidity
    00:00 +8°C° 0 mm 1 mps 695 mmHg 85%
    01:00 +8°C° 0 mm 1 mps 695 mmHg 85%
    02:00 +7°C° 0 mm 1 mps 694 mmHg 86%
    03:00 +7°C° 0 mm 1 mps 694 mmHg 86%
    04:00 +8°C° 0 mm 1 mps 694 mmHg 84%
    05:00 +9°C° 0 mm 1 mps 694 mmHg 81%
    06:00 +10°C° 0 mm 1 mps 694 mmHg 79%
    07:00 +13°C° 0 mm 1 mps 695 mmHg 69%
    08:00 +15°C° 0 mm 1 mps 695 mmHg 59%
    09:00 +17°C° 0 mm 2 mps 695 mmHg 49%
    10:00 +19°C° 0 mm 2 mps 695 mmHg 47%
    11:00 +20°C° 0 mm 2 mps 695 mmHg 45%
    12:00 +21°C° 0 mm 2 mps 694 mmHg 42%
    13:00 +21°C° 0.1 mm 2 mps 694 mmHg 43%
    14:00 +21°C° 0.1 mm 3 mps 694 mmHg 43%
    15:00 +21°C° 0.1 mm 3 mps 693 mmHg 44%
    16:00 +20°C° 0.3 mm 2 mps 693 mmHg 51%
    17:00 +19°C° 0.3 mm 2 mps 693 mmHg 57%
    18:00 +18°C° 0.3 mm 1 mps 693 mmHg 64%
    19:00 +15°C° 0.4 mm 1 mps 693 mmHg 70%
    20:00 +13°C° 0.4 mm 1 mps 693 mmHg 76%
    21:00 +11°C° 0.4 mm 1 mps 693 mmHg 82%
    22:00 +11°C° 0 mm 1 mps 693 mmHg 83%
    23:00 +10°C° 0 mm 1 mps 692 mmHg 84%

    30 April, Sunday

    Time Temperature Precipitation Wind Pressure Humidity
    00:00 +10°C° 0 mm 1 mps 692 mmHg 85%
    01:00 +10°C° 0 mm 1 mps 692 mmHg 85%
    02:00 +9°C° 0 mm 1 mps 692 mmHg 85%
    03:00 +9°C° 0 mm 1 mps 691 mmHg 85%
    04:00 +10°C° 0 mm 1 mps 692 mmHg 82%
    05:00 +11°C° 0 mm 1 mps 692 mmHg 79%
    06:00 +12°C° 0 mm 1 mps 693 mmHg 76%
    07:00 +15°C° 0 mm 1 mps 693 mmHg 67%
    08:00 +18°C° 0 mm 1 mps 693 mmHg 58%
    09:00 +19°C° 0 mm 2 mps 694 mmHg 49%
    10:00 +21°C° 0.1 mm 2 mps 694 mmHg 46%
    11:00 +23°C° 0.1 mm 2 mps 693 mmHg 43%
    12:00 +24°C° 0.1 mm 2 mps 693 mmHg 40%
    13:00 +24°C° 0.1 mm 2 mps 693 mmHg 40%
    14:00 +24°C° 0.1 mm 2 mps 692 mmHg 40%
    15:00 +24°C° 0.1 mm 2 mps 692 mmHg 41%
    16:00 +23°C° 0.1 mm 2 mps 692 mmHg 48%
    17:00 +22°C° 0.1 mm 1 mps 692 mmHg 54%
    18:00 +20°C° 0.1 mm 1 mps 692 mmHg 61%
    19:00 +18°C° 0.2 mm 1 mps 692 mmHg 67%
    20:00 +15°C° 0.2 mm 1 mps 692 mmHg 73%
    21:00 +13°C° 0.2 mm 1 mps 692 mmHg 78%
    22:00 +13°C° 0.1 mm 1 mps 692 mmHg 77%
    23:00 +14°C° 0.1 mm 1 mps 692 mmHg 77%

    1 May, Monday

    Time Temperature Precipitation Wind Pressure Humidity
    00:00 +14°C° 0.1 mm 1 mps 692 mmHg 76%
    01:00 +13°C° 0.1 mm 1 mps 692 mmHg 78%
    02:00 +12°C° 0.1 mm 1 mps 692 mmHg 79%
    03:00 +12°C° 0.1 mm 1 mps 691 mmHg 81%
    04:00 +13°C° 0 mm 1 mps 692 mmHg 79%
    05:00 +13°C° 0 mm 1 mps 692 mmHg 77%
    06:00 +14°C° 0 mm 1 mps 693 mmHg 74%
    07:00 +18°C° 0 mm 1 mps 693 mmHg 65%
    08:00 +20°C° 0 mm 1 mps 694 mmHg 56%
    09:00 +22°C° 0 mm 1 mps 694 mmHg 47%
    10:00 +23°C° 0 mm 2 mps 694 mmHg 44%
    11:00 +24°C° 0 mm 2 mps 694 mmHg 41%
    12:00 +26°C° 0 mm 2 mps 694 mmHg 38%
    13:00 +26°C° 0 mm 2 mps 694 mmHg 38%
    14:00 +26°C° 0 mm 2 mps 694 mmHg 38%
    15:00 +26°C° 0 mm 2 mps 693 mmHg 38%
    16:00 +25°C° 0 mm 2 mps 693 mmHg 44%
    17:00 +23°C° 0 mm 2 mps 693 mmHg 51%
    18:00 +22°C° 0 mm 1 mps 693 mmHg 57%
    19:00 +20°C° 0 mm 1 mps 693 mmHg 65%
    20:00 +16°C° 0 mm 1 mps 693 mmHg 72%
    21:00 +14°C° 0 mm 1 mps 693 mmHg 80%
    22:00 +14°C° 0 mm 1 mps 693 mmHg 79%
    23:00 +14°C° 0 mm 1 mps 693 mmHg 77%

    2 May, Tuesday

    Time Temperature Precipitation Wind Pressure Humidity
    00:00 +14°C° 0 mm 2 mps 693 mmHg 75%
    01:00 +14°C° 0 mm 1 mps 693 mmHg 74%
    02:00 +14°C° 0 mm 1 mps 693 mmHg 73%
    03:00 +13°C° 0 mm 1 mps 693 mmHg 72%
    04:00 +14°C° 0 mm 1 mps 693 mmHg 71%
    05:00 +14°C° 0 mm 1 mps 693 mmHg 69%
    06:00 +15°C° 0 mm 1 mps 694 mmHg 68%
    07:00 +18°C° 0 mm 1 mps 694 mmHg 59%
    08:00 +20°C° 0 mm 1 mps 694 mmHg 50%
    09:00 +22°C° 0 mm 1 mps 694 mmHg 41%
    10:00 +23°C° 0 mm 2 mps 694 mmHg 39%
    11:00 +24°C° 0 mm 2 mps 694 mmHg 38%
    12:00 +25°C° 0 mm 3 mps 694 mmHg 36%
    13:00 +24°C° 0.1 mm 3 mps 693 mmHg 37%
    14:00 +24°C° 0.1 mm 3 mps 693 mmHg 39%
    15:00 +24°C° 0.1 mm 2 mps 693 mmHg 41%
    16:00 +21°C° 0.6 mm 2 mps 693 mmHg 52%
    17:00 +19°C° 0.6 mm 2 mps 692 mmHg 63%
    18:00 +18°C° 0.6 mm 1 mps 692 mmHg 74%
    19:00 +16°C° 0.2 mm 1 mps 692 mmHg 76%
    20:00 +15°C° 0.2 mm 1 mps 692 mmHg 79%
    21:00 +14°C° 0.2 mm 1 mps 692 mmHg 81%
    22:00 +14°C° 0 mm 1 mps 692 mmHg 81%
    23:00 +13°C° 0 mm 1 mps 691 mmHg 81%
    Show more